Regional Weather Roundup
Issued by NWS Sterling, VA

Home | Current Version | Previous Version | Graphics & Text | Print | Product List | Glossary On
Versions: 1 2 3 4 5 6 7 8 9 10 11 12 13 14 15 16 17 18 19 20 21 22 23 24 25 26 27
000
ASUS41 KLWX 280610
RWRLWX

REGIONAL WEATHER ROUNDUP
NATIONAL WEATHER SERVICE BALTIMORE MD/WASHINGTON DC
200 AM EDT THU APR 28 2016

Note: "FAIR" indicates few or no clouds below 12,000 feet
with no significant weather and/or obstructions to visibility.
 TC=TEMPERATURE CELSIUS

 * =Non NWS site. Station does not report precipitation (e.g. rain,
    snow, etc.), thunder, or fog.

DCZ001-MDZ009-015-VAZ040>042-051-053>054-280700-
WASHINGTON METRO

CITY           SKY/WX    TMP DP  RH WIND       PRES   REMARKS
WASHINGTON NAT CLOUDY    54  50  86 CALM      29.92F
DULLES         CLOUDY    53  50  89 CALM      29.91F
ANDREWS AFB    CLOUDY    52  50  93 NE3       29.91S
FT BELVOIR     CLOUDY    53  50  90 MISG      29.91F
QUANTICO       CLOUDY    56  51  84 CALM      29.91F
COLLEGE PARK*  CLOUDY    50  48  93 E3        29.93S
LEESBURG*      CLOUDY    54  54 100 E3        29.92F
MANASSAS*      CLOUDY    54  54 100 CALM      29.92F
GAITHERSBURG*  CLOUDY    52  46  82 SE5       29.97S

$$

MDZ006>007-011-014-280700-
BALTIMORE METRO

CITY           SKY/WX    TMP DP  RH WIND       PRES   REMARKS
BWI AIRPORT    CLOUDY    52  48  86 CALM      29.93S
MD SCIENCE CTR   N/A     54  47  77 MISG      29.94S
MARTIN STATE   CLOUDY    54  52  94 CALM      29.95S
ANNAPOLIS      CLOUDY    54  50  86 CALM      29.92F
FORT MEADE*    CLOUDY    48  46  93 CALM      29.95F

$$

MDZ012-015-019>023-280700-
MARYLAND EASTERN SHORE

CITY           SKY/WX    TMP DP  RH WIND       PRES   REMARKS
OCEAN CITY     CLOUDY    51  48  89 NE5       29.92F
SALISBURY      CLOUDY    50  47  89 NE5       29.92F
CAMBRIDGE*     MOCLDY    46  45  93 CALM      29.92S
EASTON*        PTCLDY   N/A N/A N/A CALM      29.97S

$$

MDZ017>025-280700-
SOUTHERN MARYLAND

CITY           SKY/WX    TMP DP  RH WIND       PRES   REMARKS
PATUXENT RIVER CLOUDY    53  50  89 CALM      29.91F
ST INIGOES     CLOUDY    54  52  93 CALM      29.90F
LEONARDTOWN*   CLOUDY    50  48  93 CALM      29.93F

$$

MDZ003>005-280700-
NORTH CENTRAL MARYLAND

CITY           SKY/WX    TMP DP  RH WIND       PRES   REMARKS
FREDERICK*     CLOUDY    50  50 100 CALM      29.96S FOG
HAGERSTOWN APT CLOUDY    54  50  86 CALM      29.92S FOG
WESTMINSTER*   CLOUDY    48  46  93 CALM      29.93R FOG

$$

MDZ501>502-280700-
WESTERN MARYLAND

CITY           SKY/WX    TMP DP  RH WIND       PRES   REMARKS
OAKLAND*       CLOUDY    52  50  93 SE5       29.91F
CUMBERLAND*    NOT AVBL

$$

VAZ025>031-280700-
SHENANDOAH VALLEY

CITY           SKY/WX    TMP DP  RH WIND       PRES   REMARKS
WINCHESTER*    CLOUDY    54  52  94 CALM      29.91S FOG
FRONT ROYAL*   CLOUDY    54  52  94 CALM      29.90R
LURAY*         CLOUDY    54  54 100 CALM      29.91R FOG
NEW MARKET*    CLOUDY    53  52  97 CALM      29.90S
STAUNTON*      CLOUDY    59  59 100 NW3       29.92R FOG
WAYNESBORO*    CLOUDY    55  54  97 MISG      29.91R

$$

WVZ021-048>050-054>055-280700-
EASTERN WEST VIRGINIA PANHANDLE

CITY           SKY/WX    TMP DP  RH WIND       PRES   REMARKS
MARTINSBURG    CLOUDY    51  50  96 N5        29.91F FOG
PETERSBURG*    CLOUDY    57  54  89 CALM      29.90F

$$

VAZ036>039-050-280700-
CENTRAL FOOTHILLS

CITY           SKY/WX    TMP DP  RH WIND       PRES   REMARKS
CHARLOTTESVILL CLOUDY    57  54  89 CALM      29.90F
CULPEPER*      CLOUDY    55  54  94 CALM      29.93S FOG
ORANGE*        CLOUDY    55  55 100 CALM      29.93F
GORDONSVILLE*  CLOUDY    55  55 100 CALM      29.91F
WARRENTON*     CLOUDY    55  49  80 CALM      29.91S

$$

VAZ055>057-280700-
NORTH AND CENTRAL PIEDMONT

CITY           SKY/WX    TMP DP  RH WIND       PRES   REMARKS
FREDERICKSBRG* CLOUDY    55  55 100 CALM      29.91S
STAFFORD*      CLOUDY    53  51  92 CALM      29.95F

$$

NCZ024-NYZ072-PAZ021-071-VAZ022-071-280700-
OTHER REGIONAL OBSERVATIONS

CITY           SKY/WX    TMP DP  RH WIND       PRES   REMARKS
NEW YORK CITY  CLOUDY    52  44  74 CALM      29.94F
PHILADELPHIA   MOCLDY    51  44  77 CALM      29.94F
PITTSBURGH     CLOUDY    54  31  41 NE5       29.89F
ROANOKE        CLOUDY    63  62  97 SE12      29.89F
RICHMOND       CLOUDY    56  55  97 CALM      29.90F FOG
RALEIGH        CLOUDY    67  65  93 E3        29.87F

$$

ANZ530>537-280700-
MARINE OBSERVATIONS

STATION/POSITION TIME  TEMP    WIND        PRES
                       AIR SEA DIR/SP/G
                 (UTC) (F)     (DEG/KT/KT) (MB)
THOMAS PT LIGHT  0600   53 58  120/  4/  5 1014.9S
BALT KEY BRIDGE  0500   54     180/  2/  3 1013.4R
COVE POINT       0500   53      CALM  /  4 1013.9F
LEWISETTA        0500   55 62  160/  5/  6 1012.8F
SOLOMONS ISLAND  0500   54 61  190/  3/  4   N/A
PINEY POINT      0500          140/  4/  5   N/A

$$





USA.gov is the U.S. government's official web portal to all federal, state and local government web resources and services.